FW2775 Weather Reports


Display with metric or nautical units.
time (UTC)temp
F
wind
direction
speed
MPH
gust
MPH
rain 1hr
in
rain 24hr
in
rain mn
in
humidity
%
barometer
mb
20260510225515 79 246 2.0 6.0 0.00 0.00 0.00 31 1016.8
20260510224515 79 213 0.0 4.0 0.00 0.00 0.00 30 1016.9
20260510223515 79 226 2.0 4.0 0.00 0.00 0.00 30 1016.7
20260510222555 80 230 1.0 5.0 0.00 0.00 0.00 29 1016.8
20260510221515 80 230 1.0 3.0 0.00 0.00 0.00 30 1016.6
20260510220515 80 217 1.0 3.0 0.00 0.00 0.00 29 1016.7
20260510215515 81 199 0.0 3.0 0.00 0.00 0.00 30 1016.7
20260510214515 82 187 2.0 4.0 0.00 0.00 0.00 29 1016.7
20260510213516 81 186 1.0 4.0 0.00 0.00 0.00 30 1016.7
20260510212515 81 195 1.0 4.0 0.00 0.00 0.00 30 1016.7
20260510211535 80 201 0.0 1.0 0.00 0.00 0.00 28 1016.6
20260510210535 80 229 1.0 5.0 0.00 0.00 0.00 28 1016.6
20260510205515 79 179 2.0 7.0 0.00 0.00 0.00 29 1016.4
20260510204517 82 157 2.0 7.0 0.00 0.00 0.00 27 1016.6
20260510203517 82 256 2.0 7.0 0.00 0.00 0.00 27 1016.7
20260510202557 81 229 1.0 5.0 0.00 0.00 0.00 29 1016.8
20260510200517 80 244 2.0 5.0 0.00 0.00 0.00 29 1016.8
20260510195517 81 252 1.0 5.0 0.00 0.00 0.00 29 1017.1
20260510194517 83 183 0.0 3.0 0.00 0.00 0.00 26 1017.2
20260510193537 82 98 3.0 5.0 0.00 0.00 0.00 25 1017.3
20260510191557 82 335 0.0 2.0 0.00 0.00 0.00 26 1017.3
20260510190537 82 278 3.0 4.0 0.00 0.00 0.00 25 1017.6
20260510185515 82 284 0.0 3.0 0.00 0.00 0.00 27 1017.4
20260510184537 82 258 2.0 5.0 0.00 0.00 0.00 27 1017.5
20260510183537 81 273 2.0 5.0 0.00 0.00 0.00 27 1017.6
20260510182537 81 244 3.0 8.0 0.00 0.00 0.00 28 1017.6
20260510181537 82 250 1.0 3.0 0.00 0.00 0.00 29 1017.8
20260510180536 81 228 1.0 3.0 0.00 0.00 0.00 28 1017.8
20260510175517 81 173 3.0 8.0 0.00 0.00 0.00 31 1017.7
20260510173516 82 137 0.0 3.0 0.00 0.00 0.00 29 1018.1
20260510172636 82 287 1.0 3.0 0.00 0.00 0.00 30 1018.3
20260510171517 79 189 0.0 2.0 0.00 0.00 0.00 31 1018.4
20260510170537 78 170 2.0 4.0 0.00 0.00 0.00 31 1018.3
20260510165516 80 178 0.0 5.0 0.00 0.00 0.00 30 1018.4
20260510164516 80 241 0.0 2.0 0.00 0.00 0.00 30 1018.6
20260510163536 79 187 0.0 2.0 0.00 0.00 0.00 30 1018.5
20260510162516 80 291 1.0 3.0 0.00 0.00 0.00 30 1018.6
20260510161536 80 288 0.0 1.0 0.00 0.00 0.00 32 1018.5
20260510160556 80 314 2.0 4.0 0.00 0.00 0.00 34 1018.8
20260510155557 79 277 2.0 4.0 0.00 0.00 0.00 35 1018.8
20260510154516 78 274 0.0 5.0 0.00 0.00 0.00 35 1018.6
20260510153516 77 329 1.0 4.0 0.00 0.00 0.00 37 1018.6
20260510152536 77 291 1.0 4.0 0.00 0.00 0.00 41 1018.6
20260510151536 76 288 2.0 4.0 0.00 0.00 0.00 42 1018.6
20260510150516 76 254 1.0 6.0 0.00 0.00 0.00 42 1018.7
20260510144516 75 355 5.0 9.0 0.00 0.00 0.00 43 1018.6
20260510143516 75 266 5.0 10.0 0.00 0.00 0.00 46 1018.6
20260510142516 75 335 1.0 4.0 0.00 0.00 0.00 47 1018.5
20260510141556 75 262 3.0 5.0 0.00 0.00 0.00 50 1018.4
20260510140516 74 266 1.0 3.0 0.00 0.00 0.00 54 1018.4
20260510135516 73 268 3.0 6.0 0.00 0.00 0.00 55 1018.6
20260510134536 73 278 3.0 7.0 0.00 0.00 0.00 56 1018.5
20260510133516 72 269 3.0 8.0 0.00 0.00 0.00 60 1018.6
20260510132516 71 272 2.0 5.0 0.00 0.00 0.00 65 1018.5
20260510130516 70 260 1.0 4.0 0.00 0.00 0.00 71 1018.3
20260510125516 68 259 1.0 3.0 0.00 0.00 0.00 74 1018.2
20260510124516 67 273 3.0 5.0 0.00 0.00 0.00 78 1018.1
20260510123516 65 246 1.0 4.0 0.00 0.00 0.00 83 1018.1
20260510122516 64 222 1.0 3.0 0.00 0.00 0.00 85 1017.8
20260510121516 63 225 0.0 2.0 0.00 0.01 0.00 85 1017.8
20260510120517 62 225 0.0 1.0 0.00 0.01 0.00 86 1017.4
20260510115516 61 224 0.0 2.0 0.00 0.01 0.00 86 1017.3
20260510114516 60 223 0.0 1.0 0.00 0.01 0.00 86 1017.0
20260510113536 59 0.0 0.0 0.00 0.01 0.00 86 1016.9
20260510112536 59 0.0 0.0 0.00 0.02 0.00 86 1016.9
20260510111616 58 223 0.0 2.0 0.00 0.02 0.00 86 1016.8
20260510110536 58 223 0.0 1.0 0.00 0.02 0.00 86 1016.7
20260510105516 58 0.0 0.0 0.00 0.02 0.00 86 1016.7
20260510104516 58 0.0 0.0 0.00 0.02 0.00 87 1016.5
20260510103515 58 223 0.0 2.0 0.00 0.02 0.00 87 1016.4
20260510102516 58 214 1.0 3.0 0.00 0.02 0.00 87 1016.2
20260510100556 58 191 0.0 2.0 0.00 0.02 0.00 86 1016.0
20260510095516 59 191 0.0 1.0 0.00 0.02 0.00 87 1015.8
20260510094656 59 0.0 1.0 0.00 0.02 0.00 86 1015.8
20260510093555 59 191 0.0 1.0 0.00 0.02 0.00 86 1015.6
20260510092535 59 0.0 3.0 0.00 0.02 0.00 86 1015.7
20260510091556 59 0.0 0.0 0.00 0.02 0.00 86 1015.4
20260510090515 59 196 0.0 1.0 0.00 0.02 0.00 86 1015.3
20260510085556 59 196 0.0 1.0 0.00 0.02 0.00 86 1014.9
20260510084515 59 196 1.0 2.0 0.00 0.02 0.00 86 1014.9
20260510083515 59 196 0.0 1.0 0.00 0.02 0.00 86 1014.8
20260510082555 59 196 0.0 1.0 0.00 0.02 0.00 86 1014.8
20260510081515 59 0.0 0.0 0.00 0.02 0.00 86 1014.6
20260510080515 60 0.0 0.0 0.00 0.02 0.00 86 1014.5
20260510075535 60 196 0.0 2.0 0.00 0.02 0.00 86 1014.5
20260510074535 60 0.0 0.0 0.00 0.02 0.00 86 1014.3
20260510073515 60 196 0.0 2.0 0.00 0.02 0.00 86 1014.6
20260510072535 60 196 0.0 3.0 0.00 0.02 0.00 86 1014.4
20260510071515 60 196 0.0 2.0 0.00 0.02 0.00 86 1014.3
20260510070535 61 196 1.0 2.0 0.00 0.02 0.00 86 1014.3
20260510065515 61 196 0.0 1.0 0.00 0.02 0.00 86 1014.2
20260510064515 61 196 0.0 2.0 0.00 0.02 0.00 85 1014.4
20260510063515 61 196 0.0 1.0 0.00 0.02 0.00 85 1014.5
20260510062515 61 0.0 1.0 0.00 0.02 0.00 85 1014.6
20260510061515 62 196 0.0 2.0 0.00 0.02 0.00 85 1014.3
20260510060535 62 196 0.0 2.0 0.00 0.02 0.00 85 1014.3
20260510055535 62 196 0.0 2.0 0.00 0.02 0.00 85 1014.5
20260510054535 62 196 1.0 3.0 0.00 0.02 0.00 84 1014.5
20260510053515 62 196 0.0 1.0 0.00 0.02 0.00 84 1014.4
20260510052535 62 196 0.0 4.0 0.00 0.02 0.00 84 1014.7
20260510051515 63 212 0.0 2.0 0.00 0.02 0.00 84 1014.5
20260510050515 63 210 0.0 1.0 0.00 0.02 0.00 84 1014.5
20260510045515 63 215 0.0 2.0 0.00 0.02 0.00 84 1014.5
20260510044515 63 218 1.0 2.0 0.00 0.02 0.00 84 1014.3
20260510043515 63 218 0.0 2.0 0.00 0.02 0.00 84 1014.4
20260510042537 63 217 1.0 2.0 0.00 0.02 0.00 83 1014.5
20260510041537 63 206 0.0 3.0 0.00 0.02 0.00 83 1014.5
20260510034516 64 212 0.0 1.0 0.00 0.02 0.02 82 1014.6
20260510033616 64 214 0.0 2.0 0.00 0.02 0.02 82 1014.8
20260510032516 64 205 1.0 3.0 0.00 0.02 0.02 82 1014.8
20260510031536 64 186 1.0 3.0 0.00 0.02 0.02 82 1014.7
20260510030516 64 180 1.0 4.0 0.00 0.02 0.02 81 1014.7
20260510025516 64 197 2.0 4.0 0.00 0.02 0.02 81 1014.7
20260510024556 65 193 1.0 3.0 0.00 0.02 0.02 81 1014.6
20260510023516 65 233 1.0 5.0 0.00 0.02 0.02 81 1014.8
20260510022556 65 184 1.0 4.0 0.00 0.02 0.02 80 1014.6
20260510020536 65 179 2.0 4.0 0.00 0.02 0.02 79 1014.5
20260510015515 65 180 1.0 3.0 0.00 0.02 0.02 79 1014.5
20260510014536 65 169 2.0 4.0 0.00 0.02 0.02 78 1014.3
20260510013536 65 178 1.0 4.0 0.00 0.02 0.02 78 1014.1
20260510012516 66 179 1.0 3.0 0.00 0.02 0.02 77 1014.1
20260510011515 66 179 1.0 2.0 0.00 0.02 0.02 77 1013.9
20260510010516 66 166 0.0 2.0 0.00 0.02 0.02 76 1013.7
20260510005516 66 165 1.0 2.0 0.00 0.02 0.02 75 1013.7
20260510004535 67 183 1.0 3.0 0.00 0.02 0.02 75 1013.5
20260510002515 67 227 1.0 5.0 0.00 0.02 0.02 73 1012.9
20260510001515 67 194 1.0 5.0 0.00 0.02 0.02 73 1012.8
20260510000555 68 189 1.0 4.0 0.00 0.02 0.02 72 1012.8
20260509235535 68 201 4.0 7.0 0.00 0.02 0.02 71 1012.8
20260509234515 68 201 1.0 4.0 0.00 0.02 0.02 70 1012.7
20260509233516 68 164 2.0 6.0 0.00 0.02 0.02 70 1012.6
20260509232515 68 161 5.0 9.0 0.00 0.02 0.02 69 1012.6
20260509231515 69 196 3.0 7.0 0.00 0.02 0.02 69 1012.7
20260509230535 69 185 4.0 9.0 0.00 0.02 0.02 69 1012.8
20260509225635 69 161 3.0 8.0 0.00 0.02 0.02 68 1012.4